Location: Cajon Junction
(34.3117°N, 117.4748°W)
Time: 14:43:43
(UTC+00:00)

Cosmos 2369 Rocket - Pass Details

Date: 18 April 2024
Orbit: 830 x 850 km, 71.0° (Epoch: 19 May)

Event Time Altitude Azimuth Distance (km) Brightness Sun altitude
Rises 12:27:35 0° 336° (NNW) 3,380 5.3 -10.0°
Reaches altitude 10° 12:30:03 10° 334° (NNW) 2,441 4.6 -9.5°
Maximum altitude 12:35:36 69° 252° (WSW) 885 2.1 -8.5°
Drops below altitude 10° 12:41:06 10° 170° (S) 2,425 4.5 -7.4°
Sets 12:43:32 0° 167° (SSE) 3,355 5.3 -6.9°
